Regional Weather Roundup
Issued by NWS Cleveland, OH

Home | Current Version | Previous Version | Text Only | Print | Product List | Glossary On
Versions: 1 2 3 4 5 6 7 8 9 10 11 12 13 14 15 16 17 18 19 20 21 22 23 24 25 26 27 28 29 30 31 32 33 34 35 36 37 38 39 40 41 42 43 44 45 46 47 48 49 50
000
ASUS41 KCLE 072212
RWRCLE
OHIO REGIONAL WEATHER ROUNDUP
NATIONAL WEATHER SERVICE WILMINGTON, OH
500 PM EST SUN FEB 07 2016

NOTE: "FAIR" INDICATES FEW OR NO CLOUDS BELOW 12,000 FEET WITH NO
SIGNIFICANT WEATHER AND/OR OBSTRUCTIONS TO VISIBILITY.

OHZ001>008-015>018-024>027-034-035-043-044-072300-
   NORTHWEST OHIO

CITY           SKY/WX    TMP DP  RH WIND       PRES   REMARKS
DEFIANCE       CLOUDY    48  31  51 S13       29.78F
FINDLAY        FAIR      48  30  49 S15       29.81S
TOLEDO EXPRESS CLOUDY    49  28  44 SW17G26   29.78F
TOLEDO EXEC    MOCLDY    50  28  42 S16       29.80F
LIMA           FAIR      49  28  44 SW15      29.81F
$$

OHZ009>014-019>023-028>033-038-089-072300-
   NORTHEAST OHIO

CITY           SKY/WX    TMP DP  RH WIND       PRES   REMARKS
CLE-HOPKINS    MOCLDY    50  26  39 S12       29.87F
CLE-LAKEFRONT  FAIR      51  27  39 S13       29.83F
CUY CO. ARPT   CLOUDY    50  28  43 SW17      29.85F
LORAIN-ELYRIA  FAIR      49  26  41 SW17      29.84F
ASHTABULA      FAIR      47  28  47 S7        29.87F
AKRON-CANTON   MOCLDY    47  26  44 SW13      29.88F
WOOSTER        FAIR      46  27  47 SW13      29.87F
MANSFIELD      FAIR      47  25  42 S14       29.85F
YOUNGSTOWN     CLOUDY    48  25  40 SW10      29.88F
$$

OHZ042-051>053-060>062-070>072-077>081-072300-
  SOUTHWEST OHIO

CITY           SKY/WX    TMP DP  RH WIND       PRES   REMARKS
CINC-COVINGTON NOT AVBL
CINC-LUNKEN    FAIR      51  23  33 SW14      29.90F
HAMILTON       FAIR      53  21  28 S10G18    29.88F
DAYTON         PTSUNNY   50  23  34 S15G22    29.85F
WRIGHT-PAT AFB PTSUNNY   52  19  27 S21G26    29.85F
DAYTON GENERAL FAIR      51  20  29 S14G24    29.86F
WILMINGTON     FAIR      48  24  39 SW16      29.88F
$$

OHZ036-037-039>041-045>050-054>059-063>069-073>076-082>088-072300-
  CENTRAL AND SOUTHEAST OHIO

CITY           SKY/WX    TMP DP  RH WIND       PRES   REMARKS
COLUMBUS       MOCLDY    50  19  29 SW17G25   29.89F
OSU AIRPORT    FAIR      49  23  36 S10       29.87F
BOLTON FIELD   CLEAR     48  25  40 SW15G21   29.89F
RICKENBACK AFB FAIR      49  24  37 SW14      29.88F
NEWARK         FAIR      51  24  34 SW12      29.89F
MARION         FAIR      48  26  42 S14       29.86F
LANCASTER      FAIR      50  22  33 SW12      29.90F
ZANESVILLE     FAIR      53  22  29 SW8       29.90F
NEW PHILLY     MOCLDY    50  25  37 SW7       29.90F
$$



USA.gov is the U.S. government's official web portal to all federal, state and local government web resources and services.